2023/02/05 00:00:00,115.7, 0.5
2023/02/05 00:10:00,115.6, 0.6
2023/02/05 00:20:00,115.5, 0.5
2023/02/05 00:30:00,115.5, 0.5
2023/02/05 00:40:00,115.4, 0.3
2023/02/05 00:50:00,115.4, 0.2
2023/02/05 01:00:00,115.4, 0.5
2023/02/05 01:10:00,115.4, 0.3
2023/02/05 01:20:00,115.5, 0.1
2023/02/05 01:30:00,115.5,-0.4
2023/02/05 01:40:00,115.4,-0.4
2023/02/05 01:50:00,115.4,-0.2
2023/02/05 02:00:00,115.4, 0.2
2023/02/05 02:10:00,115.4, 0.0
2023/02/05 02:20:00,115.4, 0.1
2023/02/05 02:30:00,115.4, 0.0
2023/02/05 02:40:00,115.4, 0.1
2023/02/05 02:50:00,115.6,-0.1
2023/02/05 03:00:00,115.5,-0.3
2023/02/05 03:10:00,115.4,-0.8
2023/02/05 03:20:00,115.4,-0.8
2023/02/05 03:30:00,115.3,-0.4
2023/02/05 03:40:00,115.3,-0.3
2023/02/05 03:50:00,115.3,-0.2
2023/02/05 04:00:00,115.2,-0.1
2023/02/05 04:10:00,115.2,-0.2
2023/02/05 04:20:00,115.1, 0.0
2023/02/05 04:30:00,115.0,-0.2
2023/02/05 04:40:00,114.9,-0.1
2023/02/05 04:50:00,114.8,-0.4
2023/02/05 05:00:00,114.7,-0.7
2023/02/05 05:10:00,114.5,-1.1
2023/02/05 05:20:00,114.4,-0.7
2023/02/05 05:30:00,114.2,-1.0
2023/02/05 05:40:00,114.1,-0.7
2023/02/05 05:50:00,114.0,-0.7
2023/02/05 06:00:00,114.0,-0.5
2023/02/05 06:10:00,113.9,-0.2
2023/02/05 06:20:00,113.9,-0.1
2023/02/05 06:30:00,113.8,-0.2
2023/02/05 06:40:00,113.7,-0.4
2023/02/05 06:50:00,113.7,-0.2
2023/02/05 07:00:00,113.7, 0.2
2023/02/05 07:10:00,113.7,-0.2
2023/02/05 07:20:00,113.7, 0.6
2023/02/05 07:30:00,113.8, 0.2
2023/02/05 07:40:00,113.8, 0.3
2023/02/05 07:50:00,113.9, 0.6
2023/02/05 08:00:00,114.0, 1.0
2023/02/05 08:10:00,114.0, 1.5
2023/02/05 08:20:00,114.0, 2.4
2023/02/05 08:30:00,114.1, 2.8
2023/02/05 08:40:00,114.1, 3.2
2023/02/05 08:50:00,114.1, 3.1
2023/02/05 09:00:00,114.1, 2.9
2023/02/05 09:10:00,114.1, 3.0
2023/02/05 09:20:00,114.1, 5.1
2023/02/05 09:30:00,114.0, 6.4
2023/02/05 09:40:00,113.9, 6.2
2023/02/05 09:50:00,113.8, 5.6
2023/02/05 10:00:00,113.8, 6.3
2023/02/05 10:10:00,113.6, 6.0
2023/02/05 10:20:00,113.6, 4.9
2023/02/05 10:30:00,113.7, 4.6
2023/02/05 10:40:00,113.5, 5.2
2023/02/05 10:50:00,113.5, 7.3
2023/02/05 11:00:00,113.5, 7.8
2023/02/05 11:10:00,113.4, 7.5
2023/02/05 11:20:00,113.3, 6.0
2023/02/05 11:30:00,113.2, 6.5
2023/02/05 11:40:00,113.2, 6.5
2023/02/05 11:50:00,113.2, 6.0
2023/02/05 12:00:00,113.1, 7.0
2023/02/05 12:10:00,113.1, 7.9
2023/02/05 12:20:00,113.0, 7.0
2023/02/05 12:30:00,113.0,10.4
2023/02/05 12:40:00,112.9, 7.7
2023/02/05 12:50:00,113.1,11.4
2023/02/05 13:00:00,113.0,12.3
2023/02/05 13:10:00,113.0,13.8
2023/02/05 13:20:00,112.8,14.2
2023/02/05 13:30:00,112.7,14.4
2023/02/05 13:40:00,112.7,13.7
2023/02/05 13:50:00,112.5,14.7
2023/02/05 14:00:00,112.4,13.6
2023/02/05 14:10:00,112.5,17.0
2023/02/05 14:20:00,112.5,16.2
2023/02/05 14:30:00,112.5,14.9
2023/02/05 14:40:00,112.3,15.8
2023/02/05 14:50:00,112.1,13.7
2023/02/05 15:00:00,112.1,13.5
2023/02/05 15:10:00,111.9,16.1
2023/02/05 15:20:00,111.9,14.2
2023/02/05 15:30:00,111.8,14.0
2023/02/05 15:40:00,111.7,13.3
2023/02/05 15:50:00,111.4,16.0
2023/02/05 16:00:00,111.2,18.0
2023/02/05 16:10:00,111.1,17.2
2023/02/05 16:20:00,110.9,17.3
2023/02/05 16:30:00,111.1,13.2
2023/02/05 16:40:00,111.0,13.7
2023/02/05 16:50:00,111.2, 7.0
2023/02/05 17:00:00,111.3, 4.7
2023/02/05 17:10:00,111.1, 2.9
2023/02/05 17:20:00,111.3, 2.0
2023/02/05 17:30:00,111.2, 1.0
2023/02/05 17:40:00,111.1, 0.6
2023/02/05 17:50:00,111.0,-0.1
2023/02/05 18:00:00,110.8,-0.7
2023/02/05 18:10:00,110.8,-0.9
2023/02/05 18:20:00,110.7,-1.4
2023/02/05 18:30:00,110.7,-1.5
2023/02/05 18:40:00,110.7,-1.7
2023/02/05 18:50:00,110.6,-1.7
2023/02/05 19:00:00,110.6,-1.8
2023/02/05 19:10:00,110.6,-2.2
2023/02/05 19:20:00,110.5,-2.5
2023/02/05 19:30:00,110.5,-2.5
2023/02/05 19:40:00,110.4,-2.6
2023/02/05 19:50:00,110.4,-2.5
2023/02/05 20:00:00,110.4,-2.8
2023/02/05 20:10:00,110.3,-2.7
2023/02/05 20:20:00,110.2,-2.7
2023/02/05 20:30:00,110.2,-2.8
2023/02/05 20:40:00,110.1,-2.7
2023/02/05 20:50:00,110.1,-2.8
2023/02/05 21:00:00,110.0,-2.6
2023/02/05 21:10:00,109.9,-2.6
2023/02/05 21:20:00,109.7,-2.9
2023/02/05 21:30:00,109.6,-2.7
2023/02/05 21:40:00,109.6,-2.9
2023/02/05 21:50:00,109.6,-2.9
2023/02/05 22:00:00,109.7,-3.1
2023/02/05 22:10:00,109.7,-3.1
2023/02/05 22:20:00,109.8,-3.3
2023/02/05 22:30:00,109.7,-3.0
2023/02/05 22:40:00,109.7,-3.3
2023/02/05 22:50:00,109.6,-3.2
2023/02/05 23:00:00,109.5,-3.1
2023/02/05 23:10:00,109.5,-3.3
2023/02/05 23:20:00,109.4,-3.7
2023/02/05 23:30:00,109.4,-2.9
2023/02/05 23:40:00,109.4,-3.6
2023/02/05 23:50:00,109.4,-3.4
